Volver al catálogo

NOAA 16 DEB

ActivoSSO
NORAD 41165·DEBRIS·🇺🇸 United States

Lanzado Sep 21, 2000 desde Vandenberg Space Force Base

Loading…

Próximos Pases (próximas 24 horas)

TLE

ActualizadoSource: Space-Track

Época: Sep 11, 2026, 12:58 UTC

1 41165U 00055CY  26254.54066731  .00002749  00000-0  10832-2 0  9996
2 41165  98.6068 281.2100 0023432 160.5457 199.6625 14.29810699556195

Sigue NOAA 16 DEB en tiempo real con AllMySat

Download on the App Store